Weather History for Fort Sill, OK

Change the Weather History Date:

Thursday, February 21, 2013

  Actual Average Record
Temperature  
Mean Temperature 36 °F -  
Max Temperature 46 °F 61 °F 82 °F (1982)
Min Temperature 26 °F 34 °F 15 °F (1978)
Degree Days  
Heating Degree Days 28    
Moisture  
Dew Point 33 °F    
Average Humidity 89    
Maximum Humidity 100    
Minimum Humidity 67    
Precipitation  
Precipitation 0.51 in - - ()
Sea Level Pressure  
Sea Level Pressure 29.74 in    
Wind  
Wind Speed 13 mph (North)    
Max Wind Speed 23 mph    
Max Gust Speed 31 mph    
Visibility 8 miles    
Events Rain , Thunderstorm    
Averages and records for this station are not official NWS values.
T = Trace of Precipitation, MM = Missing Value Source: NWS Daily Summary

Daily Weather History Graph

Daily Weather History Graph

Search for Another Location

Airport:

Trip Planner

Search our weather history database for the weather conditions in past years. The results will help you decide how hot, cold, wet, or windy it might be!

Date:

Astronomy

Feb. 21, 2013 Rise Set
Actual Time 7:12 AM CST 6:22 PM CST
Civil Twilight 6:46 AM CST 6:48 PM CST
Nautical Twilight 6:17 AM CST 7:17 PM CST
Astronomical Twilight 5:48 AM CST 7:46 PM CST
Moon 2:45 PM CST (2/21) 4:11 AM CST (2/21)
Length of Visible Light 12h 01m
Length of Day
11h 10m
Waxing Gibbous, 84% of the Moon is Illuminated
Feb 21
Waxing Gibbous
Feb 25
Full
Mar 4
Last Quarter
Mar 11
New
Mar 19
First Quarter

Hourly Weather History & Observations

Time (CST) Temp. Windchill Dew Point Humidity Pressure Visibility Wind Dir Wind Speed Gust Speed Precip Events Conditions
12:05 AM 35.6 °F 26.2 °F 32.0 °F 87% 29.79 in 10.0 mi East 15.0 mph - N/A   Overcast
12:44 AM 35.6 °F 24.8 °F 32.0 °F 87% 29.75 in 10.0 mi ESE 19.6 mph - N/A Rain Light Rain
12:55 AM 35.1 °F 23.3 °F 31.8 °F 88% 29.74 in 10.0 mi ESE 23.0 mph 27.6 mph 0.00 in Rain Light Rain
1:33 AM 35.6 °F 26.2 °F 32.0 °F 87% 29.72 in 10.0 mi ESE 15.0 mph 26.5 mph N/A   Overcast
1:42 AM 33.8 °F 23.9 °F 32.0 °F 93% 29.72 in 10.0 mi ESE 15.0 mph - N/A   Overcast
1:53 AM 35.6 °F 25.9 °F 32.0 °F 87% 29.73 in 10.0 mi ESE 16.1 mph - N/A   Overcast
1:55 AM 34.7 °F 25.1 °F 32.5 °F 92% 29.72 in 10.0 mi ESE 15.0 mph - 0.04 in   Overcast
1:58 AM 35.6 °F 26.2 °F 32.0 °F 87% 29.72 in 10.0 mi ESE 15.0 mph - N/A   Overcast
2:55 AM 35.2 °F 25.4 °F 33.1 °F 92% 29.68 in 10.0 mi ESE 16.1 mph - N/A   Overcast
3:50 AM 35.6 °F 29.2 °F 33.8 °F 93% 29.70 in 10.0 mi NNW 8.1 mph - N/A   Overcast
3:53 AM 35.6 °F 28.6 °F 33.8 °F 93% 29.70 in 10.0 mi NNW 9.2 mph - N/A Rain Light Rain
3:55 AM 36.0 °F 27.5 °F 33.3 °F 90% 29.70 in 10.0 mi NNW 12.7 mph - 0.00 in Rain Light Rain
4:02 AM 35.6 °F 27.1 °F 33.8 °F 93% 29.71 in 10.0 mi NNW 12.7 mph 18.4 mph N/A Rain Light Rain
4:10 AM 35.6 °F 27.1 °F 33.8 °F 93% 29.73 in 6.0 mi NW 12.7 mph 18.4 mph N/A Rain , Thunderstorm Light Thunderstorms and Rain
4:11 AM 35.6 °F 26.6 °F 33.8 °F 93% 29.73 in 5.0 mi NW 13.8 mph - N/A Rain , Thunderstorm Thunderstorms and Rain
4:14 AM 35.6 °F 26.6 °F 33.8 °F 93% 29.76 in 2.5 mi WNW 13.8 mph - N/A Rain , Thunderstorm Heavy Thunderstorms and Rain
4:16 AM 35.6 °F 28.0 °F 33.8 °F 93% 29.72 in 1.8 mi NNW 10.4 mph - N/A Rain , Thunderstorm Heavy Thunderstorms and Rain
4:18 AM 35.6 °F 28.6 °F 33.8 °F 93% 29.73 in 1.5 mi NNW 9.2 mph - N/A Rain , Thunderstorm Heavy Thunderstorms and Rain
4:23 AM 35.6 °F 28.0 °F 33.8 °F 93% 29.73 in 1.5 mi NNW 10.4 mph - N/A Rain , Thunderstorm Heavy Thunderstorms and Rain
4:25 AM 35.6 °F 28.0 °F 33.8 °F 93% 29.72 in 1.8 mi North 10.4 mph - N/A Rain , Thunderstorm Heavy Thunderstorms and Rain
4:26 AM 35.6 °F 28.6 °F 33.8 °F 93% 29.71 in 2.0 mi North 9.2 mph - N/A Rain , Thunderstorm Heavy Thunderstorms and Rain
4:27 AM 35.6 °F 28.6 °F 33.8 °F 93% 29.70 in 2.0 mi North 9.2 mph - N/A Rain , Thunderstorm Heavy Thunderstorms and Rain
4:30 AM 33.8 °F 25.3 °F 33.8 °F 100% 29.69 in 3.0 mi NNE 11.5 mph - N/A Rain , Thunderstorm Thunderstorms and Rain
4:31 AM 33.8 °F 25.3 °F 32.0 °F 93% 29.69 in 3.0 mi NNE 11.5 mph - N/A Rain , Thunderstorm Rain
4:37 AM 33.8 °F 26.4 °F 32.0 °F 93% 29.70 in 8.0 mi North 9.2 mph - N/A Rain , Thunderstorm Light Rain
4:48 AM 33.8 °F 27.0 °F 32.0 °F 93% 29.77 in 5.0 mi NW 8.1 mph - N/A Rain Light Rain
4:50 AM 33.8 °F 27.7 °F 32.0 °F 93% 29.71 in 5.0 mi Variable 6.9 mph - N/A Rain , Thunderstorm Light Thunderstorms and Rain
4:55 AM 33.8 °F 27.7 °F 32.9 °F 96% 29.73 in 4.0 mi Variable 6.9 mph - 0.38 in Rain , Thunderstorm Heavy Thunderstorms and Rain
5:05 AM 33.8 °F 25.8 °F 32.0 °F 93% 29.73 in 6.0 mi North 10.4 mph - N/A Rain , Thunderstorm Light Rain
5:08 AM 33.8 °F 25.8 °F 32.0 °F 93% 29.73 in 9.0 mi North 10.4 mph - N/A Rain , Thunderstorm Light Thunderstorms and Rain
5:09 AM 33.8 °F 25.3 °F 32.0 °F 93% 29.73 in 10.0 mi North 11.5 mph - N/A Rain , Thunderstorm Light Thunderstorms and Rain
5:10 AM 33.8 °F 25.8 °F 32.0 °F 93% 29.73 in 10.0 mi North 10.4 mph - N/A Rain , Thunderstorm Light Thunderstorms and Rain
5:17 AM 33.8 °F 26.4 °F 32.0 °F 93% 29.74 in 10.0 mi North 9.2 mph - N/A Rain , Thunderstorm Light Thunderstorms and Rain
5:23 AM 33.8 °F 25.3 °F 32.0 °F 93% 29.75 in 8.0 mi North 11.5 mph - N/A Rain Rain
5:35 AM 33.8 °F 25.8 °F 32.0 °F 93% 29.75 in 9.0 mi North 10.4 mph - N/A Rain Light Rain
5:37 AM 33.8 °F 25.8 °F 32.0 °F 93% 29.75 in 7.0 mi North 10.4 mph - N/A Rain Heavy Rain
5:50 AM 33.8 °F 24.8 °F 32.0 °F 93% 29.73 in 10.0 mi NNE 12.7 mph - N/A Rain Light Rain
5:51 AM 33.8 °F 25.3 °F 32.0 °F 93% 29.73 in 10.0 mi NNE 11.5 mph - N/A Rain Light Rain
5:55 AM 33.3 °F 25.1 °F 32.5 °F 97% 29.74 in 10.0 mi North 10.4 mph - 0.06 in Rain Light Rain
6:05 AM 33.8 °F 25.3 °F 32.0 °F 93% 29.74 in 10.0 mi NNE 11.5 mph - N/A Rain Light Rain
6:12 AM 33.8 °F 25.3 °F 32.0 °F 93% 29.74 in 8.0 mi North 11.5 mph - N/A Rain Rain
6:23 AM 33.8 °F 25.8 °F 32.0 °F 93% 29.74 in 10.0 mi NNE 10.4 mph - N/A Rain Light Rain
6:34 AM 33.8 °F 25.8 °F 32.0 °F 93% 29.73 in 10.0 mi NE 10.4 mph - N/A   Light Drizzle
6:35 AM 33.8 °F 25.8 °F 32.0 °F 93% 29.73 in 10.0 mi NE 10.4 mph - N/A   Light Drizzle
6:54 AM 33.8 °F 25.3 °F 32.0 °F 93% 29.72 in 10.0 mi NE 11.5 mph - N/A   Overcast
6:55 AM 33.4 °F 25.4 °F 32.7 °F 97% 29.73 in 10.0 mi NE 10.4 mph - 0.03 in   Overcast
7:55 AM 33.6 °F 26.2 °F 33.1 °F 98% 29.70 in 10.0 mi NE 9.2 mph - N/A   Overcast
7:56 AM 33.8 °F 26.4 °F 33.8 °F 100% 29.70 in 10.0 mi NE 9.2 mph - N/A   Overcast
8:49 AM 33.8 °F 24.3 °F 33.8 °F 100% 29.69 in 10.0 mi ENE 13.8 mph - N/A   Overcast
8:55 AM 34.3 °F 26.5 °F 33.6 °F 97% 29.70 in 10.0 mi ENE 10.4 mph - N/A   Overcast
9:55 AM 36.3 °F 32.5 °F 35.4 °F 97% 29.70 in 10.0 mi ESE 4.6 mph - N/A   Overcast
10:01 AM 37.4 °F 32.1 °F 35.6 °F 93% 29.70 in 10.0 mi ESE 6.9 mph - N/A   Overcast
10:16 AM 37.4 °F 34.9 °F 35.6 °F 93% 29.70 in 10.0 mi ESE 3.5 mph - N/A   Overcast
10:37 AM 39.2 °F 32.0 °F 37.4 °F 93% 29.70 in 10.0 mi SSE 11.5 mph - N/A   Overcast
10:45 AM 39.2 °F 32.5 °F 37.4 °F 93% 29.70 in 10.0 mi SSE 10.4 mph - N/A   Overcast
10:55 AM 39.7 °F 33.2 °F 37.2 °F 91% 29.70 in 10.0 mi SSE 10.4 mph - N/A   Overcast
11:20 AM 41.0 °F 35.2 °F 37.4 °F 87% 29.69 in 10.0 mi South 9.2 mph - N/A   Overcast
11:55 AM 41.7 °F 35.2 °F 37.9 °F 86% 29.70 in 10.0 mi SSW 11.5 mph - N/A   Overcast
12:10 PM 41.0 °F 33.5 °F 37.4 °F 87% 29.70 in 10.0 mi SW 13.8 mph 19.6 mph N/A   Overcast
12:35 PM 41.0 °F 33.9 °F 37.4 °F 87% 29.70 in 10.0 mi SSW 12.7 mph 23.0 mph N/A   Overcast
12:55 PM 41.7 °F 34.1 °F 36.9 °F 83% 29.70 in 10.0 mi WSW 15.0 mph 20.7 mph N/A   Overcast
1:17 PM 44.6 °F 38.4 °F 37.4 °F 76% 29.69 in 10.0 mi WSW 12.7 mph 18.4 mph N/A   Overcast
1:55 PM 44.8 °F 38.3 °F 36.5 °F 73% 29.68 in 10.0 mi WSW 13.8 mph - N/A   Mostly Cloudy
2:01 PM 44.6 °F 38.4 °F 35.6 °F 71% 29.68 in 10.0 mi WSW 12.7 mph - N/A   Mostly Cloudy
2:55 PM 46.9 °F - 36.3 °F 67% 29.69 in 10.0 mi West 8.1 mph - N/A   Mostly Cloudy
3:55 PM 46.6 °F - 36.9 °F 69% 29.72 in 10.0 mi WNW 9.2 mph - N/A   Overcast
4:55 PM 45.1 °F 38.8 °F 36.7 °F 72% 29.75 in 10.0 mi NNW 13.8 mph 21.9 mph N/A   Overcast
5:55 PM 43.5 °F 36.7 °F 34.7 °F 71% 29.81 in 10.0 mi NW 13.8 mph 20.7 mph N/A   Overcast
6:55 PM 40.1 °F 31.6 °F 33.8 °F 78% 29.84 in 10.0 mi NNW 16.1 mph - N/A   Scattered Clouds
7:17 PM 37.4 °F 27.5 °F 30.2 °F 75% 29.85 in 10.0 mi NNW 18.4 mph 31.1 mph N/A   Mostly Cloudy
7:28 PM 35.6 °F 24.5 °F 28.4 °F 75% 29.87 in 10.0 mi NNW 20.7 mph 28.8 mph N/A   Scattered Clouds
7:55 PM 32.4 °F 20.0 °F 25.5 °F 76% 29.90 in 10.0 mi NNW 21.9 mph 28.8 mph N/A   Clear
8:55 PM 30.0 °F 19.1 °F 23.4 °F 76% 29.94 in 10.0 mi NNW 15.0 mph - N/A   Clear
9:55 PM 28.2 °F 16.8 °F 19.8 °F 71% 30.00 in 10.0 mi NNW 15.0 mph - N/A   Clear
10:55 PM 27.0 °F 16.7 °F 18.7 °F 71% 30.03 in 10.0 mi North 11.5 mph - N/A   Clear
11:55 PM 26.2 °F 16.4 °F 18.1 °F 71% 30.04 in 10.0 mi NNW 10.4 mph - N/A   Clear